Tok, AK

11:19 PM AKST on February 24, 2017 (GMT -0900)
Eagle

Weather History for PAEG - August, 2013

Change the Weather History Date:

Tuesday, August 6, 2013

  Actual Average (PABN) Record (PABN)
Temperature  
Mean Temperature 60 °F -  
Max Temperature 82 °F 58 °F 77 °F (2004)
Min Temperature 37 °F 47 °F 39 °F (2000)
Degree Days  
Heating Degree Days 6    
Growing Degree Days 10 (Base 50)    
Moisture  
Dew Point 44 °F    
Average Humidity 60    
Maximum Humidity 97    
Minimum Humidity 23    
Precipitation  
Precipitation 0.00 in - - ()
Sea Level Pressure  
Sea Level Pressure 29.98 in    
Wind  
Wind Speed 2 mph (ESE)    
Max Wind Speed 9 mph    
Max Gust Speed -    
Visibility 10 miles    
Events      
Averages and records for this station are not official NWS values.
T = Trace of Precipitation, MM = Missing Value Source: NWS Daily Summary

Daily Weather History Graph

Daily Weather History Graph

Search for Another Location

Airport or City:

Trip Planner

Search our weather history database for the weather conditions in past years. The results will help you decide how hot, cold, wet, or windy it might be!

Date:

Astronomy

Aug. 06, 2013 Rise Set
Actual Time 4:43 AM AKDT 10:15 PM AKDT
Civil Twilight 3:20 AM AKDT 11:35 PM AKDT
Nautical Twilight Sun does not rise Sun does not rise
Astronomical Twilight Sun does not rise Sun does not rise
Moon 5:13 AM AKDT (8/6) 9:10 PM AKDT (8/6)
Length of Visible Light 20h 15m
Length of Day
17h 31m
Waning Crescent, 0% of the Moon is Illuminated
Aug 6
Waning Crescent
Aug 6
New
Aug 14
First Quarter
Aug 20
Full
Aug 28
Last Quarter

Hourly Weather History & Observations

Time (AKDT) Temp. Dew Point Humidity Pressure Visibility Wind Dir Wind Speed Gust Speed Precip Events Conditions
12:53 AM 44.1 °F 42.1 °F 93% 29.99 in 10.0 mi Calm Calm - N/A   Clear
1:53 AM 42.1 °F 39.9 °F 92% 30.00 in 10.0 mi Calm Calm - N/A   Clear
2:53 AM 39.9 °F 39.0 °F 97% 30.01 in 10.0 mi Calm Calm - N/A   Clear
3:53 AM 39.0 °F 37.0 °F 93% 30.02 in 10.0 mi Calm Calm - N/A   Partly Cloudy
4:53 AM 37.9 °F 36.0 °F 93% 30.03 in 10.0 mi Calm Calm - N/A   Clear
5:53 AM 37.9 °F 36.0 °F 93% 30.04 in 10.0 mi Calm Calm - N/A   Mostly Cloudy
6:29 AM 41.0 °F 39.2 °F 93% 30.03 in 10.0 mi Calm Calm - N/A   Partly Cloudy
6:53 AM 45.0 °F 42.1 °F 90% 30.04 in 10.0 mi Calm Calm - N/A   Clear
7:53 AM 52.0 °F 46.9 °F 83% 30.04 in 10.0 mi Calm Calm - N/A   Clear
8:53 AM 57.0 °F 48.9 °F 74% 30.04 in 10.0 mi Calm Calm - N/A   Clear
9:53 AM 64.0 °F 50.0 °F 60% 30.03 in 10.0 mi Calm Calm - N/A   Clear
10:53 AM 68.0 °F 50.0 °F 52% 30.01 in 10.0 mi NE 9.2 mph - N/A   Clear
11:53 AM 75.0 °F 48.0 °F 38% 30.00 in 10.0 mi SE 8.1 mph - N/A   Clear
12:53 PM 78.1 °F 48.0 °F 35% 29.99 in 10.0 mi Variable 6.9 mph - N/A   Clear
1:53 PM 80.1 °F 46.0 °F 30% 29.97 in 10.0 mi Variable 6.9 mph - N/A   Clear
2:53 PM 81.0 °F 42.1 °F 25% 29.96 in 10.0 mi ESE 5.8 mph - N/A   Clear
3:53 PM 81.0 °F 39.9 °F 23% 29.94 in 10.0 mi SSE 8.1 mph - N/A   Clear
4:53 PM 82.0 °F 41.0 °F 23% 29.93 in 10.0 mi Variable 5.8 mph - N/A   Clear
5:53 PM 80.1 °F 42.1 °F 26% 29.92 in 10.0 mi Variable 5.8 mph - N/A   Partly Cloudy
6:53 PM 80.1 °F 42.1 °F 26% 29.91 in 10.0 mi Variable 3.5 mph - N/A   Mostly Cloudy
7:53 PM 79.0 °F 44.1 °F 29% 29.90 in 10.0 mi Calm Calm - N/A   Scattered Clouds
8:53 PM 75.0 °F 50.0 °F 41% 29.90 in 10.0 mi Calm Calm - N/A   Mostly Cloudy
9:53 PM 64.9 °F 48.0 °F 54% 29.90 in 10.0 mi Calm Calm - N/A   Overcast
10:53 PM 57.0 °F 45.0 °F 64% 29.91 in 10.0 mi Calm Calm - N/A   Overcast
11:53 PM 53.1 °F 45.0 °F 74% 29.91 in 10.0 mi Calm Calm - N/A   Overcast